TimeEDT,TemperatureF,Dew PointF,Humidity,Sea Level PressureIn,VisibilityMPH,Wind Direction,Wind SpeedMPH,Gust SpeedMPH,PrecipitationIn,Events,Conditions,WindDirDegrees,DateUTC
12:53 AM,73.9,68.0,82,30.04,10.0,SSW,10.4,-,N/A,,Clear,210,2013-06-24 04:53:00
1:53 AM,71.1,66.9,87,30.04,10.0,SSW,10.4,-,N/A,,Clear,200,2013-06-24 05:53:00
2:53 AM,71.1,66.0,84,30.04,10.0,South,8.1,-,N/A,,Clear,190,2013-06-24 06:53:00
3:53 AM,71.1,66.0,84,30.03,10.0,South,5.8,-,N/A,,Clear,170,2013-06-24 07:53:00
4:53 AM,70.0,64.9,84,30.01,10.0,South,4.6,-,N/A,,Clear,170,2013-06-24 08:53:00
5:53 AM,69.1,64.9,87,30.03,10.0,West,4.6,-,N/A,,Clear,260,2013-06-24 09:53:00
6:53 AM,70.0,66.0,87,30.03,8.0,SSE,4.6,-,N/A,,Clear,160,2013-06-24 10:53:00
7:53 AM,72.0,66.9,84,30.04,9.0,South,9.2,-,N/A,,Clear,190,2013-06-24 11:53:00
8:20 AM,71.6,66.2,83,30.07,7.0,SW,13.8,20.7,N/A,,Mostly Cloudy,220,2013-06-24 12:20:00
8:53 AM,73.9,66.9,79,30.06,8.0,SW,11.5,-,N/A,,Mostly Cloudy,230,2013-06-24 12:53:00
9:43 AM,75.2,66.2,73,30.08,10.0,WSW,8.1,-,N/A,,Overcast,240,2013-06-24 13:43:00
9:53 AM,75.9,66.9,74,30.06,7.0,WSW,11.5,-,N/A,,Overcast,250,2013-06-24 13:53:00
10:45 AM,78.8,66.2,65,30.08,7.0,WSW,6.9,-,N/A,,Mostly Cloudy,250,2013-06-24 14:45:00
10:53 AM,79.0,68.0,69,30.07,7.0,SW,8.1,-,N/A,,Mostly Cloudy,230,2013-06-24 14:53:00
11:00 AM,78.8,68.0,69,30.08,7.0,West,9.2,-,N/A,,Partly Cloudy,280,2013-06-24 15:00:00
11:53 AM,81.0,68.0,65,30.07,7.0,West,10.4,-,N/A,,Mostly Cloudy,260,2013-06-24 15:53:00
12:53 PM,82.0,66.0,58,30.06,10.0,WSW,10.4,-,N/A,,Scattered Clouds,250,2013-06-24 16:53:00
1:03 PM,82.4,66.2,58,30.07,10.0,WNW,11.5,-,N/A,,Scattered Clouds,290,2013-06-24 17:03:00
1:53 PM,84.0,64.9,53,30.03,10.0,NW,6.9,-,N/A,,Partly Cloudy,310,2013-06-24 17:53:00
2:53 PM,84.9,64.9,51,29.98,10.0,Variable,4.6,-,N/A,,Clear,0,2013-06-24 18:53:00
3:53 PM,88.0,64.9,46,29.99,10.0,South,9.2,-,N/A,,Scattered Clouds,190,2013-06-24 19:53:00
4:53 PM,86.0,63.0,46,29.96,10.0,SSW,6.9,-,N/A,,Scattered Clouds,200,2013-06-24 20:53:00
5:53 PM,84.9,62.1,46,29.96,10.0,SSW,9.2,-,N/A,,Partly Cloudy,210,2013-06-24 21:53:00
6:53 PM,84.9,63.0,48,29.96,10.0,SW,12.7,-,N/A,,Partly Cloudy,230,2013-06-24 22:53:00
7:53 PM,82.9,64.9,54,29.95,10.0,SSW,11.5,-,N/A,,Partly Cloudy,210,2013-06-24 23:53:00
8:53 PM,81.0,66.9,62,29.93,10.0,SSW,8.1,-,N/A,,Clear,210,2013-06-25 00:53:00
9:53 PM,75.0,66.9,76,29.87,10.0,South,17.3,21.9,0.01,,Partly Cloudy,190,2013-06-25 01:53:00
10:53 PM,70.0,63.0,78,29.95,10.0,SW,9.2,-,0.02,Rain,Light Rain,220,2013-06-25 02:53:00
11:53 PM,68.0,64.0,87,29.95,10.0,SW,5.8,-,0.00,,Clear,220,2013-06-25 03:53:00